Hourly Data Report for December 06, 2016

All times are specified in Local Standard Time (LST). Add 1 hour to adjust for Daylight Saving Time where and when it is observed.

CHATHAM KENT
ONTARIO

42°18'21.000" N
82°04'57.000" W
196.60 m
6131414
YCK

Related Data

No related data is available for this station

Download Data

Hourly Data (December 2016)
Hourly Data Report for December 6, 2016
Temp Definition
°C
Dew Point Temp Definition
°C
Rel Hum Definition
%
Wind Dir Definition
10's deg

Wind Spd Definition
km/h
Visibility Definition
km
Stn Press Definition
kPa
Hmdx Definition


Wind Chill Definition


Weather Definition


TIME
00:00 Legend Double Dagger -0.5 -1.6 92 6 9 16.1 99.45   -4 LegendNANA
01:00 Legend Double Dagger -0.2 -1.6 90 7 11 16.1 99.41   -4 LegendNANA
02:00 Legend Double Dagger 0.0 -1.3 91 9 9 16.1 99.33   -3 LegendNANA
03:00 Legend Double Dagger 2.1 0.1 86 12 13 16.1 99.29     LegendNANA
04:00 Legend Double Dagger 2.0 0.1 87 10 15 16.1 99.21     LegendNANA
05:00 Legend Double Dagger 2.8 -0.3 80 12 18 16.1 99.12     LegendNANA
06:00 Legend Double Dagger 3.2 0.3 81 11 24 16.1 99.04     LegendNANA
07:00 Legend Double Dagger 3.7 0.7 81 12 22 16.1 98.96     LegendNANA
08:00 Legend Double Dagger 4.0 0.9 80 10 28 16.1 98.82     LegendNANA
09:00 Legend Double Dagger 4.7 1.2 78 11 32 16.1 98.72     LegendNANA
10:00 Legend Double Dagger 4.9 1.2 77 11 32 16.1 98.59     LegendNANA
11:00 Legend Double Dagger 5.0 0.5 72 12 24 16.1 98.54     LegendNANA
12:00 Legend Double Dagger 4.8 0.6 74 12 22 16.1 98.43     LegendNANA
13:00 Legend Double Dagger 4.9 0.5 73 13 22 16.1 98.35     LegendNANA
14:00 Legend Double Dagger 4.4 1.7 83 13 21 16.1 98.27     Rain
15:00 Legend Double Dagger 4.0 3.0 93 12 17 16.1 98.21     Rain
16:00 Legend Double Dagger 4.0 3.3 95 12 18 11.3 98.25     Rain
17:00 Legend Double Dagger 4.0 3.1 94 14 17 16.1 98.30     Rain
18:00 Legend Double Dagger 3.9 3.5 97 13 11 16.1 98.28     Rain
19:00 Legend Double Dagger 4.0 3.7 98 12 8 16.1 98.25     LegendNANA
20:00 Legend Double Dagger 4.0 3.7 98 13 5 16.1 98.27     LegendNANA
21:00 Legend Double Dagger 4.7 4.4 98 26 15 16.1 98.34     LegendNANA
22:00 Legend Double Dagger 4.2 3.9 98 28 21 3.6 98.40     Fog
23:00 Legend Double Dagger 3.5 2.9 96 28 18 16.1 98.46     LegendNANA

Notes on Data Quality.

Legend

  • E = Estimated
  • M = Missing
  • NA = Not Available
  • ‡ = Partner data that is not subject to review by the National Climate Archives
Date modified: